Location: St. Louis
(38.6270°N, 90.1994°W)
Time: 02:01:43
(UTC-06:00)

Vanguard 2 - Pass Details

Date: 08 December 2021
Orbit: 553 x 2936 km, 32.9° (Epoch: 16 January)

Event Time Altitude Azimuth Distance (km) Brightness Sun altitude
Rises 15:14:02 0° 266° (W) 3,000 11.4 12.6°
Reaches altitude 10° 15:16:09 10° 258° (WSW) 2,243 11.1 12.3°
Maximum altitude 15:20:58 39° 190° (S) 1,397 9.7 11.6°
Drops below altitude 10° 15:28:19 10° 125° (SE) 3,440 10.7 10.5°
Sets 15:32:21 0° 119° (ESE) 4,841 11.4 9.9°
